This demonstration page uses our WeatherBlox Daily Observations layout. Learn more.

38.88101, -77.10428

Hourly Observations for June 15, 2016

Temp ( °F °C ) Dew Point ( °F °C ) Humidity (%) Winds ( mph kmh ) Pressure ( in mb ) Visibility ( mi km ) Precip ( " mm )
12:52 am 00:52 Partly Cloudy 67 19.4 58 14.4 73 73 S 5 7 30.02 1017 10 16.0934 0 0
1:52 am 01:52 Mostly Cloudy 67 19.4 58 14.4 73 73 SE 5 7 30.01 1016 10 16.0934 0 0
2:52 am 02:52 Mostly Cloudy 67 19.4 58 14.4 73 73 SE 5 7 29.99 1016 10 16.0934 0 0
3:52 am 03:52 Cloudy 67 19.4 59 15 76 76 SSE 3 6 29.99 1016 10 16.0934 0 0
4:52 am 04:52 Cloudy 68 20 60 15.6 76 76 S 6 9 29.98 1015 10 16.0934 0 0
5:52 am 05:52 Cloudy with Light Rain 68 20 61 16.1 78 78 S 8 13 30 1016 10 16.0934 0 0.0254
6:52 am 06:52 Cloudy with Light Rain 68 20 62 16.7 81 81 SSW 5 7 30.01 1016 10 16.0934 0 0.0254
7:52 am 07:52 Cloudy 69 20.6 62 16.7 78 78 S 3 6 30.01 1016 10 16.0934 0 0.0254
8:52 am 08:52 Cloudy 70 21.1 63 17.2 79 79 Calm 30.01 1016 10 16.0934 0 0
9:52 am 09:52 Mostly Cloudy 72 22.2 62 16.7 71 71 SSE 6 9 30 1016 10 16.0934 0 0
10:52 am 10:52 Cloudy 74 23.3 61 16.1 64 64 S 8 13 30 1016 10 16.0934 0 0
11:19 am 11:19 Cloudy 74 23.3 62 16.7 67 67 S 7 11 30 1016 10 16.0934 0 0
11:52 am 11:52 Cloudy 75 23.9 63 17.2 66 66 SSW 3 6 29.98 1015 10 16.0934 0 0
12:04 pm 12:04 Mostly Cloudy 75 24 63 17 65 65 Calm 29.97 1015 10 16.0934 0 0
12:52 pm 12:52 Cloudy 78 25.6 63 17.2 60 60 SSW 7 11 29.96 1015 10 16.0934 0 0
1:52 pm 13:52 Cloudy 80 26.7 64 17.8 58 58 S 8 13 29.93 1014 10 16.0934 0 0
2:52 pm 14:52 Cloudy 80 26.7 65 18.3 60 60 S 10 17 29.92 1013 10 16.0934 0 0
3:52 pm 15:52 Mostly Cloudy 80 26.7 66 18.9 62 62 S 8 13 29.89 1012 10 16.0934 0 0
4:52 pm 16:52 Mostly Cloudy 81 27.2 67 19.4 62 62 S 12 19 29.86 1011 10 16.0934 0 0
5:52 pm 17:52 Mostly Cloudy 82 27.8 68 20 63 63 S 13 20 29.84 1011 10 16.0934 0 0
6:52 pm 18:52 Cloudy 79 26.1 67 19.4 67 67 S 10 17 29.84 1010 10 16.0934 0 0
7:52 pm 19:52 Cloudy 78 25.6 68 20 71 71 S 8 13 29.82 1010 10 16.0934 0 0
8:52 pm 20:52 Cloudy 77 25 66 18.9 69 69 SSE 6 9 29.84 1011 10 16.0934 0 0
9:25 pm 21:25 Cloudy 77 25 66 18.9 69 69 SSE 7 11 29.85 1011 10 16.0934 0 0
9:52 pm 21:52 Cloudy 77 25 66 18.9 69 69 SE 7 11 29.84 1011 10 16.0934 0 0
10:25 pm 22:25 Cloudy 76 24.4 66 18.9 72 72 SSE 6 9 29.83 1010 10 16.0934 0 0
10:52 pm 22:52 Cloudy 76 24.4 67 19.4 74 74 SSE 7 11 29.84 1010 10 16.0934 0 0.0254
11:52 pm 23:52 Cloudy 75 23.9 67 19.4 76 76 SSE 5 7 29.83 1010 10 16.0934 0 0

Powered by AerisWeather